User: anonymous   Login
Location: Lima
(44.6384°N, 112.5920°W)
Time: 13:05:38
(UTC+00:00)
Language:

FO-29 - Orbit

View from above orbital plane
View from above orbital plane
View from above satellite
View from above satellite

Ground track
Ground track

The orbit data is extracted from the following two-line orbital elements,

1 24278U 96046B   24103.38772984  .00000065  00000-0  10296-3 0  9998
2 24278  98.5757  46.6780 0350197 358.8814   1.1508 13.53180060365533
Epoch (UTC): 12 April 2024 09:18:19
Eccentricity: 0.0350197
inclination: 98.5757°
perigee height: 800 km
apogee height: 1321 km
right ascension of ascending node: 46.6780°
argument of perigee: 358.8814°
revolutions per day: 13.53180060
mean anomaly at epoch: 1.1508°
orbit number at epoch: 36553

The dashed part of the orbit path shows where the satellite is in the earth's shadow,  

DLR